Bookmark and Share
Track history (hours):
 

CMA CGM Columba

Last reported at 2014-Apr-21 22:25 UTC. Time now 2014-Apr-24 09:44 UTC.
Position N 01°12' E 103°28'.

Length 363 m; draft 15.5 m.

Type: Ship (hazmat cat A). MMSI: 235077448.

NotesDate/timePositionNaut miles runAvg speedWind from/ knotsBaromVisibWave heightAir tempDewpointWater temp
2014-Apr-21 22:25N 01°12' E 103°28'1415.8
2014-Apr-21 21:33N 01°10' E 103°42'7 7.0
2014-Apr-21 20:33N 01°13' E 103°48'4 4.1
2014-Apr-21 19:33N 01°17' E 103°45'0 0.0
2014-Apr-21 18:31N 01°17' E 103°45'0 0.0
2014-Apr-21 17:31N 01°17' E 103°45'0 0.0
2014-Apr-21 16:31N 01°17' E 103°45'0 0.0
2014-Apr-21 15:31N 01°17' E 103°45'0 0.0
2014-Apr-21 14:31N 01°17' E 103°45'0 0.0
2014-Apr-21 13:31N 01°17' E 103°45'0 0.0
2014-Apr-21 12:28N 01°17' E 103°45'0 0.0
2014-Apr-21 11:31N 01°17' E 103°45'0 0.0
2014-Apr-21 10:31N 01°17' E 103°45'0 0.0
2014-Apr-21 09:22N 01°17' E 103°45'0 0.0
2014-Apr-21 08:31N 01°17' E 103°45'0 0.0
2014-Apr-21 07:28N 01°17' E 103°45'0 0.0
2014-Apr-21 06:31N 01°17' E 103°45'0 0.0
2014-Apr-21 05:31N 01°17' E 103°45'0 0.0
2014-Apr-21 04:31N 01°17' E 103°45'0 0.0
2014-Apr-21 03:31N 01°17' E 103°45'0 0.0
2014-Apr-21 02:28N 01°17' E 103°45'0 0.0
2014-Apr-21 01:25N 01°17' E 103°45'0 0.0
2014-Apr-21 00:31N 01°17' E 103°45'0 0.0
2014-Apr-20 23:25N 01°17' E 103°45'0 0.0
2014-Apr-20 22:31N 01°17' E 103°45'0 0.0
2014-Apr-20 21:31N 01°17' E 103°45'0 0.0
2014-Apr-20 20:31N 01°17' E 103°45'0 0.0
2014-Apr-20 19:31N 01°17' E 103°45'1 1.2
2014-Apr-20 18:33N 01°16' E 103°46'5 5.4
2014-Apr-20 17:33N 01°12' E 103°50'  
2014-Apr-16 22:33N 22°56' E 117°07'11818.9
2014-Apr-16 16:21N 24°10' E 118°47'2117.8
2014-Apr-16 15:09N 24°25' E 119°04'1316.5
2014-Apr-16 14:21N 24°34' E 119°14'1316.5
2014-Apr-16 13:33N 24°43' E 119°25'1616.0
2014-Apr-16 12:33N 24°53' E 119°38'1616.2
2014-Apr-16 11:33N 25°04' E 119°52'29317.0
2014-Apr-15 18:16N 29°19' E 122°34'1618.0
2014-Apr-15 17:23N 29°35' E 122°37'1316.3
2014-Apr-15 16:34N 29°43' E 122°24'1212.3
2014-Apr-15 15:33N 29°50' E 122°13'10 9.7
2014-Apr-15 14:33N 29°54' E 122°02'0 0.1
2014-Apr-15 12:33N 29°54' E 122°02'0 0.0
2014-Apr-15 11:33N 29°54' E 122°02'0 0.0
2014-Apr-15 10:33N 29°54' E 122°02'0 0.0
2014-Apr-15 09:33N 29°54' E 122°02'0 0.0
2014-Apr-15 08:32N 29°54' E 122°02'0 0.0
2014-Apr-15 07:33N 29°54' E 122°02'0 0.0
2014-Apr-15 06:33N 29°54' E 122°02'0 0.0
2014-Apr-15 05:32N 29°54' E 122°02'0 0.0
2014-Apr-15 03:32N 29°54' E 122°02'0 0.0
2014-Apr-15 02:32N 29°54' E 122°02'0 0.0
2014-Apr-14 23:32N 29°54' E 122°02'0 0.0
2014-Apr-14 22:32N 29°54' E 122°02'0 0.0
2014-Apr-14 20:32N 29°54' E 122°02'0 0.0
2014-Apr-14 18:32N 29°54' E 122°02'0 0.0
2014-Apr-14 17:32N 29°54' E 122°02'0 0.0
2014-Apr-14 15:32N 29°54' E 122°02'0 0.0
2014-Apr-14 14:32N 29°54' E 122°02'0 0.0
2014-Apr-14 13:32N 29°54' E 122°02'0 0.0
2014-Apr-14 11:32N 29°54' E 122°02'0 0.0
2014-Apr-14 10:32N 29°54' E 122°02'0 0.0
2014-Apr-14 09:32N 29°54' E 122°02'0 0.0
2014-Apr-14 08:32N 29°54' E 122°02'0 0.1
2014-Apr-14 07:33N 29°54' E 122°02'3 2.7
2014-Apr-14 06:33N 29°55' E 122°05'10 9.8
2014-Apr-14 05:33N 29°49' E 122°14'9 1.2
2014-Apr-13 22:30N 29°45' E 122°23'0 0.1
2014-Apr-13 21:24N 29°45' E 122°23'0 0.2
2014-Apr-13 20:30N 29°45' E 122°23'0 0.0
2014-Apr-13 19:18N 29°45' E 122°23'0 0.0
2014-Apr-13 18:24N 29°45' E 122°23'0 0.0
2014-Apr-13 17:18N 29°45' E 122°23'0 0.0
2014-Apr-13 16:30N 29°45' E 122°23'0 0.1
2014-Apr-13 15:30N 29°45' E 122°23'0 0.1
2014-Apr-13 14:30N 29°45' E 122°23'0 0.2
2014-Apr-13 13:30N 29°45' E 122°23'0 0.0
2014-Apr-13 12:30N 29°45' E 122°23'0 0.0
2014-Apr-13 11:30N 29°45' E 122°23'0 0.1
2014-Apr-13 10:30N 29°45' E 122°23'0 0.1
2014-Apr-13 09:30N 29°45' E 122°23'0 0.1
2014-Apr-13 08:30N 29°45' E 122°23'0 0.1
2014-Apr-13 07:30N 29°45' E 122°23'3 2.9
2014-Apr-13 06:33N 29°44' E 122°26'1211.6
2014-Apr-13 05:33N 29°44' E 122°39'1615.4
2014-Apr-13 04:31N 29°55' E 122°53'3912.0
2014-Apr-13 01:15N 30°31' E 122°34'10 0.7
2014-Apr-12 11:22N 30°32' E 122°22'1012.5
2014-Apr-12 10:33N 30°34' E 122°11'7 0.7
2014-Apr-12 00:33N 30°37' E 122°03'1010.0
2014-Apr-11 23:33N 30°34' E 122°14'6 6.2
2014-Apr-11 22:31N 30°33' E 122°22'  

Dump ship's entire track history

sailing weather and tide predictions

CMA CGM Columba — 2DBC9 — position and weather